Weather History for Kalaeloa, HI

Change the Weather History Date:

Sunday, April 27, 2014

  Actual Average (PHNL) Record (PHNL)
Temperature  
Mean Temperature 23 °C 24 °C  
Max Temperature 27 °C 28 °C 31 °C (2008)
Min Temperature 21 °C 21 °C 15 °C (1979)
Degree Days  
Heating Degree Days 0 0  
Month to date heating degree days 0  
Since 1 July heating degree days 0  
Cooling Degree Days 10 11  
Month to date cooling degree days 297  
Year to date cooling degree days 1072  
Growing Degree Days 24 (Base 50)    
Moisture  
Dew Point 19 °C    
Average Humidity 78    
Maximum Humidity 94    
Minimum Humidity 58    
Precipitation  
Precipitation 1.78 mm 0.25 mm 1.14 mm (1950)
Month to date precipitation 0.58  
Year to date precipitation 6.90  
Snow  
Snow 0.00 cm - - ()
Month to date snowfall  
Since 1 July snowfall  
Snow Depth -    
Sea Level Pressure  
Sea Level Pressure 1018 hPa    
Wind  
Wind Speed 5 km/h (ENE)    
Max Wind Speed 13 km/h    
Max Gust Speed -    
Visibility 15 kilometers    
Events Rain    
T = Trace of Precipitation, MM = Missing Value Source: NWS Daily Summary

Daily Weather History Graph

Daily Weather History Graph

Search for Another Location

Airport:

Trip Planner

Search our weather history database for the weather conditions in past years. The results will help you decide how hot, cold, wet, or windy it might be!

Date:

Astronomy

Apr. 27, 2014 Rise Set
Actual Time 6:03 AM HST 6:56 PM HST
Civil Twilight 5:40 AM HST 7:19 PM HST
Nautical Twilight 5:13 AM HST 7:46 PM HST
Astronomical Twilight 4:45 AM HST 8:14 PM HST
Moon 4:58 AM HST (4/27) 5:51 PM HST (4/27)
Length of Visible Light 13h 38m
Length of Day
12h 52m
Waning Crescent, 2% of the Moon is Illuminated
Apr 27
Waning Crescent
Apr 28
New
May 6
First Quarter
May 14
Full
May 21
Last Quarter

Hourly Weather History & Observations

Time (HST) Temp. Heat Index Dew Point Humidity Pressure Visibility Wind Dir Wind Speed Gust Speed Precip Events Conditions
12:53 AM 20.6 °C - 18.9 °C 90% 1019.0 hPa 16.1 km ENE 5.6 km/h / 1.5 m/s - N/A   Clear
1:53 AM 21.1 °C - 18.3 °C 84% 1018.3 hPa 16.1 km East 5.6 km/h / 1.5 m/s - N/A   Clear
2:53 AM 20.6 °C - 18.3 °C 87% 1017.6 hPa 16.1 km ENE 5.6 km/h / 1.5 m/s - N/A   Partly Cloudy
3:53 AM 20.6 °C - 18.3 °C 87% 1017.4 hPa 16.1 km ENE 5.6 km/h / 1.5 m/s - N/A   Clear
4:53 AM 20.6 °C - 18.3 °C 87% 1017.4 hPa 16.1 km Calm Calm - N/A   Clear
5:53 AM 20.6 °C - 17.8 °C 84% 1017.7 hPa 16.1 km Calm Calm - N/A   Clear
6:53 AM 21.1 °C - 18.3 °C 84% 1018.5 hPa 16.1 km ENE 5.6 km/h / 1.5 m/s - N/A   Overcast
7:10 AM 22.0 °C - 18.0 °C 78% 1017.8 hPa 16.1 km Calm Calm - N/A   Overcast
7:18 AM 22.0 °C - 18.0 °C 78% 1017.8 hPa 16.1 km Calm Calm - N/A   Overcast
7:36 AM 23.0 °C - 19.0 °C 78% 1018.2 hPa 14.5 km Calm Calm - 0.3 mm Rain Light Rain
7:44 AM 23.0 °C - 19.0 °C 78% 1018.2 hPa 16.1 km Variable 7.4 km/h / 2.1 m/s - 0.3 mm   Overcast
7:53 AM 22.2 °C - 19.4 °C 84% 1019.2 hPa 9.7 km Calm Calm - 0.3 mm Rain Light Rain
8:48 AM 22.0 °C - 20.0 °C 88% 1019.2 hPa 4.0 km East 7.4 km/h / 2.1 m/s - 0.8 mm Rain Rain
8:53 AM 22.2 °C - 20.6 °C 91% 1019.7 hPa 4.0 km Calm Calm - 1.0 mm Rain Light Rain
8:58 AM 22.0 °C - 21.0 °C 94% 1018.8 hPa 4.8 km Calm Calm - 0.0 mm Rain Rain
9:11 AM 22.0 °C - 21.0 °C 94% 1018.8 hPa 11.3 km North 9.3 km/h / 2.6 m/s - 0.3 mm Rain Light Rain
9:53 AM 24.4 °C - 20.6 °C 79% 1019.4 hPa 16.1 km NNE 9.3 km/h / 2.6 m/s - 0.3 mm   Partly Cloudy
10:53 AM 25.0 °C - 20.6 °C 76% 1019.1 hPa 16.1 km Variable 11.1 km/h / 3.1 m/s - 0.0 mm   Overcast
11:50 AM 26.0 °C - 20.0 °C 69% 1017.8 hPa 16.1 km NNE 11.1 km/h / 3.1 m/s - N/A   Overcast
11:53 AM 25.6 °C - 20.0 °C 71% 1018.5 hPa 16.1 km Calm Calm - N/A   Overcast
12:45 PM 26.0 °C - 20.0 °C 69% 1017.2 hPa 16.1 km Variable 7.4 km/h / 2.1 m/s - 0.0 mm   Mostly Cloudy
12:53 PM 26.7 °C 28.2 °C 20.0 °C 67% 1017.8 hPa 16.1 km SSE 13.0 km/h / 3.6 m/s - 0.0 mm   Mostly Cloudy
1:36 PM 26.0 °C - 20.0 °C 69% 1016.5 hPa 16.1 km Variable 5.6 km/h / 1.5 m/s - 0.0 mm   Overcast
1:53 PM 26.1 °C - 19.4 °C 66% 1017.1 hPa 16.1 km Variable 11.1 km/h / 3.1 m/s - 0.0 mm   Overcast
2:00 PM 26.0 °C - 19.0 °C 65% 1016.5 hPa 16.1 km Variable 5.6 km/h / 1.5 m/s - N/A   Overcast
2:53 PM 25.0 °C - 20.0 °C 74% 1016.5 hPa 16.1 km East 9.3 km/h / 2.6 m/s - 0.3 mm Rain Light Rain
3:53 PM 25.6 °C - 18.9 °C 66% 1015.6 hPa 16.1 km East 11.1 km/h / 3.1 m/s - 0.0 mm   Overcast
4:53 PM 26.7 °C 27.6 °C 17.8 °C 58% 1015.3 hPa 16.1 km East 11.1 km/h / 3.1 m/s - N/A   Mostly Cloudy
5:53 PM 25.6 °C - 18.3 °C 64% 1016.1 hPa 16.1 km Variable 9.3 km/h / 2.6 m/s - N/A   Overcast
6:53 PM 23.9 °C - 17.8 °C 69% 1016.6 hPa 16.1 km ENE 7.4 km/h / 2.1 m/s - N/A   Clear
7:53 PM 22.8 °C - 17.8 °C 73% 1017.7 hPa 16.1 km East 7.4 km/h / 2.1 m/s - N/A   Clear
8:53 PM - - - N/A% 1018.4 hPa - North - - N/A   Unknown
9:53 PM 21.7 °C - 17.2 °C 75% 1018.3 hPa 16.1 km ENE 5.6 km/h / 1.5 m/s - N/A   Clear
10:46 PM 21.0 °C - 17.0 °C 78% 1017.5 hPa 16.1 km Variable 5.6 km/h / 1.5 m/s - N/A   Partly Cloudy
10:53 PM 21.1 °C - 17.2 °C 78% 1018.1 hPa 16.1 km NE 5.6 km/h / 1.5 m/s - N/A   Partly Cloudy
11:53 PM 20.6 °C - 17.2 °C 81% 1017.8 hPa 16.1 km Variable 5.6 km/h / 1.5 m/s - N/A   Clear